Tracking 29892 objects as of 21-Nov-2024
HD Live streaming from Space Station
objects crossing your sky now

CZ-6A DEB

Track CZ-6A DEB now!
10-day predictions


NORAD ID: 54493
Int'l Code: 2022-151HV
Perigee: 811.5 km
Apogee: 1,089.2 km
Inclination: 98.9 °
Period: 103.9 minutes
Semi major axis: 7321 km
RCS: Unknown
Launch date: November 11, 2022
Source: People's Republic of China (PRC)
Launch site: Taiyaun Space Center, China (TSC)

Note: This is SATELLITE DEBRIS
Your satellite tracking list
Your tracking list is empty




NASA's NSSDC Master Catalog

Two Line Element Set (TLE):
1 54493U 22151HV  24325.88938402  .00002223  00000-0  17147-2 0  9995
2 54493  98.9428 302.6007 0189686 214.8234 144.0389 13.85849717101708
Source of the keplerian elements: AFSPC